Time,TemperatureF,DewpointF,PressureIn,WindDirection,WindDirectionDegrees,WindSpeedMPH,WindSpeedGustMPH,Humidity,HourlyPrecipIn,Conditions,Clouds,dailyrainin,SoftwareType,DateUTC
2013-10-22 00:01:00,78.6,75.0,29.97,WNW,292,0.0,0.0,88,0.00,,,0.00,weatherlink.com 1.10,2013-10-22 04:01:00,
2013-10-22 00:16:00,78.3,75.0,29.97,WNW,292,0.0,2.0,89,0.00,,,0.00,weatherlink.com 1.10,2013-10-22 04:16:00,
2013-10-22 00:31:00,78.2,75.0,29.97,WNW,292,0.0,0.0,90,0.00,,,0.00,weatherlink.com 1.10,2013-10-22 04:31:00,
2013-10-22 00:46:00,77.7,75.0,29.97,WNW,292,0.0,3.0,90,0.00,,,0.00,weatherlink.com 1.10,2013-10-22 04:46:00,
2013-10-22 01:01:00,77.6,75.0,29.97,WNW,292,2.0,2.0,90,0.00,,,0.00,weatherlink.com 1.10,2013-10-22 05:01:00,
2013-10-22 01:16:00,77.5,74.0,29.96,WNW,292,1.0,4.0,90,0.00,,,0.00,weatherlink.com 1.10,2013-10-22 05:16:00,
2013-10-22 01:31:00,77.2,74.0,29.95,WNW,292,0.0,1.0,90,0.00,,,0.00,weatherlink.com 1.10,2013-10-22 05:31:00,
2013-10-22 01:46:00,77.0,74.0,29.96,WNW,292,0.0,2.0,91,0.00,,,0.00,weatherlink.com 1.10,2013-10-22 05:46:00,
2013-10-22 02:01:00,77.1,74.0,29.96,WNW,292,0.0,0.0,91,0.00,,,0.00,weatherlink.com 1.10,2013-10-22 06:01:00,
2013-10-22 02:16:00,77.1,74.0,29.96,WNW,292,0.0,3.0,91,0.00,,,0.00,weatherlink.com 1.10,2013-10-22 06:16:00,
2013-10-22 02:31:00,77.1,74.0,29.95,WNW,292,0.0,2.0,91,0.00,,,0.00,weatherlink.com 1.10,2013-10-22 06:31:00,
2013-10-22 02:46:00,76.9,74.0,29.95,WNW,292,0.0,1.0,91,0.00,,,0.00,weatherlink.com 1.10,2013-10-22 06:46:00,
2013-10-22 03:01:00,76.6,74.0,29.94,WNW,292,0.0,0.0,92,0.00,,,0.00,weatherlink.com 1.10,2013-10-22 07:01:00,
2013-10-22 03:16:00,76.7,74.0,29.93,WNW,292,0.0,0.0,92,0.00,,,0.00,weatherlink.com 1.10,2013-10-22 07:16:00,
2013-10-22 03:31:00,76.5,74.0,29.93,WNW,292,0.0,0.0,92,0.00,,,0.00,weatherlink.com 1.10,2013-10-22 07:31:00,
2013-10-22 03:46:00,76.2,74.0,29.92,WNW,292,0.0,0.0,92,0.00,,,0.00,weatherlink.com 1.10,2013-10-22 07:46:00,
2013-10-22 04:01:00,75.9,74.0,29.92,WNW,292,1.0,2.0,92,0.00,,,0.00,weatherlink.com 1.10,2013-10-22 08:01:00,
2013-10-22 04:16:00,75.8,73.0,29.92,WNW,292,2.0,2.0,92,0.00,,,0.00,weatherlink.com 1.10,2013-10-22 08:16:00,
2013-10-22 04:31:00,75.8,73.0,29.92,North,349,0.0,3.0,92,0.00,,,0.00,weatherlink.com 1.10,2013-10-22 08:31:00,
2013-10-22 04:46:00,75.6,73.0,29.92,North,349,1.0,3.0,92,0.00,,,0.00,weatherlink.com 1.10,2013-10-22 08:46:00,
2013-10-22 05:01:00,75.3,73.0,29.92,North,349,3.0,4.0,92,0.00,,,0.00,weatherlink.com 1.10,2013-10-22 09:01:00,
2013-10-22 05:16:00,75.1,73.0,29.92,North,349,0.0,1.0,93,0.00,,,0.00,weatherlink.com 1.10,2013-10-22 09:16:00,
2013-10-22 05:31:00,75.1,73.0,29.92,North,349,0.0,2.0,93,0.00,,,0.00,weatherlink.com 1.10,2013-10-22 09:31:00,
2013-10-22 05:46:00,75.1,73.0,29.93,North,349,2.0,4.0,93,0.00,,,0.00,weatherlink.com 1.10,2013-10-22 09:46:00,
2013-10-22 06:01:00,75.1,73.0,29.93,North,349,0.0,4.0,94,0.00,,,0.00,weatherlink.com 1.10,2013-10-22 10:01:00,
2013-10-22 06:16:00,75.6,74.0,29.93,North,351,3.0,5.0,94,0.00,,,0.00,weatherlink.com 1.10,2013-10-22 10:16:00,
2013-10-22 06:31:00,75.9,74.0,29.93,North,351,0.0,4.0,94,0.00,,,0.00,weatherlink.com 1.10,2013-10-22 10:31:00,
2013-10-22 06:46:00,76.3,75.0,29.93,NE,39,0.0,5.0,94,0.00,,,0.00,weatherlink.com 1.10,2013-10-22 10:46:00,
2013-10-22 07:01:00,76.1,74.0,29.93,NE,39,0.0,2.0,94,0.00,,,0.00,weatherlink.com 1.10,2013-10-22 11:01:00,
2013-10-22 07:16:00,75.9,74.0,29.93,NE,39,0.0,0.0,94,0.00,,,0.00,weatherlink.com 1.10,2013-10-22 11:16:00,
2013-10-22 07:31:00,76.2,74.0,29.93,NE,45,0.0,6.0,94,0.00,,,0.00,weatherlink.com 1.10,2013-10-22 11:31:00,
2013-10-22 07:46:00,76.2,74.0,29.93,NE,45,0.0,4.0,94,0.00,,,0.00,weatherlink.com 1.10,2013-10-22 11:46:00,
2013-10-22 08:01:00,76.3,75.0,29.94,NE,45,0.0,0.0,94,0.00,,,0.00,weatherlink.com 1.10,2013-10-22 12:01:00,
2013-10-22 08:16:00,76.5,75.0,29.94,NE,45,0.0,3.0,95,0.00,,,0.00,weatherlink.com 1.10,2013-10-22 12:16:00,
2013-10-22 08:31:00,77.2,76.0,29.94,NE,45,4.0,4.0,95,0.00,,,0.00,weatherlink.com 1.10,2013-10-22 12:31:00,
2013-10-22 08:46:00,77.9,76.0,29.94,ESE,112,3.0,6.0,95,0.00,,,0.00,weatherlink.com 1.10,2013-10-22 12:46:00,
2013-10-22 09:01:00,78.5,77.0,29.94,ESE,116,2.0,7.0,95,0.00,,,0.00,weatherlink.com 1.10,2013-10-22 13:01:00,
2013-10-22 09:16:00,79.4,78.0,29.94,SE,136,6.0,7.0,95,0.00,,,0.00,weatherlink.com 1.10,2013-10-22 13:16:00,
2013-10-22 09:31:00,80.3,79.0,29.94,ESE,119,0.0,9.0,94,0.00,,,0.00,weatherlink.com 1.10,2013-10-22 13:31:00,
2013-10-22 09:46:00,80.9,78.0,29.94,SE,136,4.0,9.0,92,0.00,,,0.00,weatherlink.com 1.10,2013-10-22 13:46:00,
2013-10-22 10:01:00,81.7,79.0,29.94,SSE,153,8.0,13.0,91,0.00,,,0.00,weatherlink.com 1.10,2013-10-22 14:01:00,
2013-10-22 10:16:00,82.6,78.0,29.94,SSE,168,11.0,16.0,87,0.00,,,0.00,weatherlink.com 1.10,2013-10-22 14:16:00,
2013-10-22 10:32:00,83.3,79.0,29.93,South,190,9.0,13.0,86,0.00,,,0.00,weatherlink.com 1.10,2013-10-22 14:32:00,
2013-10-22 10:47:00,83.6,78.0,29.93,SSE,156,11.0,16.0,83,0.00,,,0.00,weatherlink.com 1.10,2013-10-22 14:47:00,
2013-10-22 11:02:00,84.4,78.0,29.93,SSE,154,12.0,16.0,81,0.00,,,0.00,weatherlink.com 1.10,2013-10-22 15:02:00,
2013-10-22 11:17:00,84.5,78.0,29.93,South,185,9.0,15.0,81,0.00,,,0.00,weatherlink.com 1.10,2013-10-22 15:17:00,
2013-10-22 11:32:00,85.2,78.0,29.93,South,170,14.0,16.0,78,0.00,,,0.00,weatherlink.com 1.10,2013-10-22 15:32:00,
2013-10-22 11:47:00,85.4,77.0,29.93,South,185,15.0,19.0,77,0.00,,,0.00,weatherlink.com 1.10,2013-10-22 15:47:00,
2013-10-22 12:02:00,85.4,78.0,29.93,SSW,193,9.0,16.0,78,0.00,,,0.00,weatherlink.com 1.10,2013-10-22 16:02:00,
2013-10-22 12:17:00,86.0,78.0,29.93,South,170,10.0,15.0,78,0.00,,,0.00,weatherlink.com 1.10,2013-10-22 16:17:00,
2013-10-22 12:32:00,86.4,78.0,29.93,South,185,15.0,17.0,76,0.00,,,0.00,weatherlink.com 1.10,2013-10-22 16:32:00,
2013-10-22 12:47:00,86.5,79.0,29.92,SSW,194,10.0,18.0,78,0.00,,,0.00,weatherlink.com 1.10,2013-10-22 16:47:00,
2013-10-22 13:02:00,86.9,79.0,29.92,South,189,16.0,17.0,76,0.00,,,0.00,weatherlink.com 1.10,2013-10-22 17:02:00,
2013-10-22 13:17:00,86.3,78.0,29.91,South,185,8.0,17.0,76,0.00,,,0.00,weatherlink.com 1.10,2013-10-22 17:17:00,
2013-10-22 13:32:00,86.5,78.0,29.90,South,175,11.0,18.0,76,0.00,,,0.00,weatherlink.com 1.10,2013-10-22 17:32:00,
2013-10-22 13:47:00,86.5,78.0,29.89,SW,228,3.0,16.0,76,0.00,,,0.00,weatherlink.com 1.10,2013-10-22 17:47:00,
2013-10-22 14:02:00,86.9,79.0,29.89,South,191,11.0,15.0,76,0.00,,,0.00,weatherlink.com 1.10,2013-10-22 18:02:00,
2013-10-22 14:17:00,86.6,79.0,29.89,SSW,213,8.0,15.0,77,0.00,,,0.00,weatherlink.com 1.10,2013-10-22 18:17:00,
2013-10-22 14:32:00,86.2,78.0,29.89,SSW,193,8.0,18.0,77,0.00,,,0.00,weatherlink.com 1.10,2013-10-22 18:32:00,
2013-10-22 14:47:00,86.1,78.0,29.89,South,180,12.0,16.0,77,0.00,,,0.00,weatherlink.com 1.10,2013-10-22 18:47:00,
2013-10-22 15:02:00,86.2,78.0,29.88,SSW,210,8.0,16.0,77,0.00,,,0.00,weatherlink.com 1.10,2013-10-22 19:02:00,
2013-10-22 15:17:00,86.3,78.0,29.87,SSW,197,11.0,19.0,77,0.00,,,0.00,weatherlink.com 1.10,2013-10-22 19:17:00,
2013-10-22 15:32:00,85.8,78.0,29.87,South,190,11.0,18.0,78,0.00,,,0.00,weatherlink.com 1.10,2013-10-22 19:32:00,
2013-10-22 16:02:00,86.3,78.0,29.87,SSW,211,10.0,17.0,76,0.00,,,0.00,weatherlink.com 1.10,2013-10-22 20:02:00,
2013-10-22 16:17:00,86.3,78.0,29.86,SW,235,9.0,16.0,77,0.00,,,0.00,weatherlink.com 1.10,2013-10-22 20:17:00,
2013-10-22 16:32:00,86.4,78.0,29.86,South,175,13.0,16.0,77,0.00,,,0.00,weatherlink.com 1.10,2013-10-22 20:32:00,
2013-10-22 16:47:00,85.9,78.0,29.86,SSW,200,11.0,16.0,78,0.00,,,0.00,weatherlink.com 1.10,2013-10-22 20:47:00,
2013-10-22 17:02:00,86.2,79.0,29.86,SW,234,8.0,12.0,78,0.00,,,0.00,weatherlink.com 1.10,2013-10-22 21:02:00,
2013-10-22 17:17:00,86.3,78.0,29.86,South,191,7.0,12.0,77,0.00,,,0.00,weatherlink.com 1.10,2013-10-22 21:17:00,
2013-10-22 17:32:00,86.1,78.0,29.86,South,190,5.0,11.0,77,0.00,,,0.00,weatherlink.com 1.10,2013-10-22 21:32:00,
2013-10-22 17:47:00,85.7,79.0,29.86,SW,221,6.0,10.0,79,0.00,,,0.00,weatherlink.com 1.10,2013-10-22 21:47:00,
2013-10-22 18:02:00,85.9,78.0,29.85,WSW,251,5.0,11.0,77,0.00,,,0.00,weatherlink.com 1.10,2013-10-22 22:02:00,
2013-10-22 18:17:00,85.3,78.0,29.85,SSW,202,10.0,11.0,78,0.00,,,0.00,weatherlink.com 1.10,2013-10-22 22:17:00,
2013-10-22 18:32:00,84.6,78.0,29.85,SW,220,4.0,11.0,80,0.00,,,0.00,weatherlink.com 1.10,2013-10-22 22:32:00,
2013-10-22 18:47:00,84.1,77.0,29.85,South,185,7.0,8.0,80,0.00,,,0.00,weatherlink.com 1.10,2013-10-22 22:47:00,
2013-10-22 19:02:00,83.8,77.0,29.85,SSW,203,5.0,8.0,81,0.00,,,0.00,weatherlink.com 1.10,2013-10-22 23:02:00,
2013-10-22 19:17:00,83.6,78.0,29.85,SSW,199,8.0,11.0,82,0.00,,,0.00,weatherlink.com 1.10,2013-10-22 23:17:00,
2013-10-22 19:32:00,83.4,78.0,29.86,SSW,205,4.0,9.0,83,0.00,,,0.00,weatherlink.com 1.10,2013-10-22 23:32:00,
2013-10-22 19:47:00,83.4,78.0,29.86,SW,233,7.0,11.0,83,0.00,,,0.00,weatherlink.com 1.10,2013-10-22 23:47:00,
2013-10-22 20:02:00,83.2,77.0,29.87,SW,221,8.0,10.0,82,0.00,,,0.00,weatherlink.com 1.10,2013-10-23 00:02:00,
2013-10-22 20:17:00,83.3,78.0,29.87,SSW,209,5.0,9.0,83,0.00,,,0.00,weatherlink.com 1.10,2013-10-23 00:17:00,
2013-10-22 20:32:00,83.3,78.0,29.89,WSW,245,9.0,10.0,83,0.00,,,0.00,weatherlink.com 1.10,2013-10-23 00:32:00,
2013-10-22 20:47:00,83.4,78.0,29.89,WSW,245,2.0,14.0,84,0.00,,,0.00,weatherlink.com 1.10,2013-10-23 00:47:00,
2013-10-22 21:02:00,83.2,78.0,29.89,WSW,254,4.0,11.0,83,0.00,,,0.00,weatherlink.com 1.10,2013-10-23 01:02:00,
2013-10-22 21:17:00,83.2,78.0,29.89,WNW,285,4.0,10.0,83,0.00,,,0.00,weatherlink.com 1.10,2013-10-23 01:17:00,
2013-10-22 21:32:00,83.2,78.0,29.90,WSW,239,3.0,11.0,84,0.00,,,0.00,weatherlink.com 1.10,2013-10-23 01:32:00,
2013-10-22 21:47:00,83.1,78.0,29.90,WSW,244,9.0,10.0,84,0.00,,,0.00,weatherlink.com 1.10,2013-10-23 01:47:00,
2013-10-22 22:02:00,82.5,76.0,29.90,West,262,11.0,23.0,81,0.00,,,0.00,weatherlink.com 1.10,2013-10-23 02:02:00,
2013-10-22 22:17:00,81.7,77.0,29.91,NW,312,15.0,31.0,84,0.00,,,0.00,weatherlink.com 1.10,2013-10-23 02:17:00,
2013-10-22 22:32:00,80.1,76.0,29.90,NW,312,0.0,18.0,86,0.00,,,0.00,weatherlink.com 1.10,2013-10-23 02:32:00,
2013-10-22 22:47:00,79.5,75.0,29.90,WNW,291,2.0,8.0,87,0.00,,,0.00,weatherlink.com 1.10,2013-10-23 02:47:00,
2013-10-22 23:02:00,79.5,75.0,29.90,NW,307,1.0,5.0,87,0.00,,,0.00,weatherlink.com 1.10,2013-10-23 03:02:00,
2013-10-22 23:17:00,79.6,76.0,29.89,NW,326,0.0,7.0,87,0.00,,,0.00,weatherlink.com 1.10,2013-10-23 03:17:00,
2013-10-22 23:32:00,79.5,75.0,29.90,NNW,339,2.0,7.0,86,0.00,,,0.00,weatherlink.com 1.10,2013-10-23 03:32:00,
2013-10-22 23:47:00,79.4,75.0,29.89,NNW,335,0.0,5.0,86,0.00,,,0.00,weatherlink.com 1.10,2013-10-23 03:47:00,